| time (UTC) | temp F | wind direction | speed MPH | gust MPH | rain 1hr in | rain 24hr in | rain mn in | humidity % | barometer mb |
| 20260506175019 | 76 | 84 | 5.0 | 8.0 | 0.00 | 0.00 | 0.00 | 25 | 1017.8 |
| 20260506174520 | 76 | 101 | 3.0 | 11.0 | 0.00 | 0.00 | 0.00 | 24 | 1017.7 |
| 20260506174020 | 76 | 103 | 2.0 | 11.0 | 0.00 | 0.00 | 0.00 | 24 | 1017.7 |
| 20260506173020 | 75 | 100 | 3.0 | 11.0 | 0.00 | 0.00 | 0.00 | 25 | 1017.7 |
| 20260506172520 | 75 | 360 | 4.0 | 11.0 | 0.00 | 0.00 | 0.00 | 25 | 1017.7 |
| 20260506172020 | 75 | 91 | 6.0 | 10.0 | 0.00 | 0.00 | 0.00 | 25 | 1017.6 |
| 20260506171520 | 74 | 88 | 10.0 | 10.0 | 0.00 | 0.00 | 0.00 | 25 | 1017.5 |
| 20260506171020 | 75 | 25 | 6.0 | 9.0 | 0.00 | 0.00 | 0.00 | 25 | 1017.7 |
| 20260506170520 | 74 | 360 | 4.0 | 8.0 | 0.00 | 0.00 | 0.00 | 25 | 1017.3 |
| 20260506170020 | 73 | 360 | 4.0 | 8.0 | 0.00 | 0.00 | 0.00 | 26 | 1017.4 |
| 20260506165519 | 73 | 360 | 4.0 | 10.0 | 0.00 | 0.00 | 0.00 | 27 | 1017.5 |
| 20260506165020 | 73 | 80 | 5.0 | 10.0 | 0.00 | 0.00 | 0.00 | 27 | 1017.6 |
| 20260506164520 | 73 | 360 | 1.0 | 7.0 | 0.00 | 0.00 | 0.00 | 26 | 1017.5 |
| 20260506164021 | 72 | 360 | 2.0 | 7.0 | 0.00 | 0.00 | 0.00 | 27 | 1017.4 |
| 20260506163520 | 73 | 360 | 4.0 | 7.0 | 0.00 | 0.00 | 0.00 | 27 | 1017.6 |
| 20260506163019 | 72 | 360 | 2.0 | 7.0 | 0.00 | 0.00 | 0.00 | 27 | 1017.3 |
| 20260506162519 | 71 | 96 | 3.0 | 7.0 | 0.00 | 0.00 | 0.00 | 28 | 1017.4 |
| 20260506162020 | 71 | 81 | 2.0 | 10.0 | 0.00 | 0.00 | 0.00 | 28 | 1017.4 |
| 20260506161519 | 71 | 89 | 7.0 | 10.0 | 0.00 | 0.00 | 0.00 | 29 | 1017.3 |
| 20260506161019 | 71 | 360 | 2.0 | 7.0 | 0.00 | 0.00 | 0.00 | 29 | 1017.4 |
| 20260506160519 | 70 | 91 | 5.0 | 7.0 | 0.00 | 0.00 | 0.00 | 30 | 1017.2 |
| 20260506160020 | 70 | 360 | 5.0 | 7.0 | 0.00 | 0.00 | 0.00 | 29 | 1017.1 |
| 20260506155519 | 70 | 51 | 5.0 | 7.0 | 0.00 | 0.00 | 0.00 | 30 | 1017.5 |
| 20260506155019 | 69 | 360 | 2.0 | 7.0 | 0.00 | 0.00 | 0.00 | 31 | 1017.4 |
| 20260506154520 | 68 | 360 | 6.0 | 6.0 | 0.00 | 0.00 | 0.00 | 32 | 1017.4 |
| 20260506154020 | 68 | 360 | 3.0 | 6.0 | 0.00 | 0.00 | 0.00 | 31 | 1017.3 |
| 20260506153520 | 67 | 360 | 3.0 | 10.0 | 0.00 | 0.00 | 0.00 | 32 | 1017.1 |
| 20260506153020 | 67 | 360 | 4.0 | 10.0 | 0.00 | 0.00 | 0.00 | 33 | 1017.1 |
| 20260506152020 | 66 | 360 | 5.0 | 7.0 | 0.00 | 0.00 | 0.00 | 34 | 1017.1 |
| 20260506151019 | 65 | 360 | 5.0 | 7.0 | 0.00 | 0.00 | 0.00 | 36 | 1016.9 |
| 20260506150520 | 65 | 72 | 4.0 | 6.0 | 0.00 | 0.00 | 0.00 | 37 | 1017.0 |
| 20260506150020 | 64 | 78 | 2.0 | 6.0 | 0.00 | 0.00 | 0.00 | 37 | 1017.0 |
| 20260506145519 | 64 | 80 | 2.0 | 6.0 | 0.00 | 0.00 | 0.00 | 37 | 1017.2 |
| 20260506145020 | 64 | 94 | 3.0 | 5.0 | 0.00 | 0.00 | 0.00 | 37 | 1017.1 |
| 20260506144519 | 64 | 67 | 2.0 | 4.0 | 0.00 | 0.00 | 0.00 | 37 | 1017.0 |
| 20260506144020 | 63 | 73 | 0.0 | 7.0 | 0.00 | 0.00 | 0.00 | 38 | 1016.7 |
| 20260506143019 | 62 | 360 | 1.0 | 6.0 | 0.00 | 0.00 | 0.00 | 38 | 1016.6 |
| 20260506142519 | 62 | 72 | 2.0 | 5.0 | 0.00 | 0.00 | 0.00 | 39 | 1016.6 |
| 20260506141519 | 61 | 68 | 2.0 | 4.0 | 0.00 | 0.00 | 0.00 | 40 | 1016.3 |
| 20260506141019 | 59 | 65 | 2.0 | 4.0 | 0.00 | 0.00 | 0.00 | 41 | 1016.1 |
| 20260506140519 | 58 | 360 | 0.0 | 2.0 | 0.00 | 0.00 | 0.00 | 42 | 1016.1 |
| 20260506135520 | 57 | 269 | 0.0 | 1.0 | 0.00 | 0.00 | 0.00 | 42 | 1016.0 |
| 20260506135021 | 57 | 360 | 1.0 | 1.0 | 0.00 | 0.00 | 0.00 | 40 | 1016.0 |
| 20260506134519 | 57 | 360 | 0.0 | 2.0 | 0.00 | 0.00 | 0.00 | 39 | 1015.9 |
| 20260506134021 | 57 | 265 | 0.0 | 2.0 | 0.00 | 0.00 | 0.00 | 39 | 1015.6 |
| 20260506133519 | 56 | 360 | 0.0 | 2.0 | 0.00 | 0.00 | 0.00 | 39 | 1015.5 |
| 20260506133019 | 56 | 360 | 0.0 | 2.0 | 0.00 | 0.00 | 0.00 | 39 | 1015.4 |
| 20260506132020 | 56 | 360 | 0.0 | 2.0 | 0.00 | 0.00 | 0.00 | 39 | 1015.1 |
| 20260506130519 | 56 | 264 | 1.0 | 2.0 | 0.00 | 0.00 | 0.00 | 38 | 1015.0 |
| 20260506124520 | 57 | 265 | 0.0 | 3.0 | 0.00 | 0.00 | 0.00 | 39 | 1015.0 |
| 20260506124019 | 57 | 360 | 0.0 | 3.0 | 0.00 | 0.00 | 0.00 | 38 | 1014.8 |
| 20260506123519 | 57 | 360 | 2.0 | 3.0 | 0.00 | 0.00 | 0.00 | 38 | 1014.7 |
| 20260506122520 | 57 | 264 | 0.0 | 3.0 | 0.00 | 0.00 | 0.00 | 37 | 1014.5 |
| 20260506122019 | 57 | 263 | 0.0 | 3.0 | 0.00 | 0.00 | 0.00 | 36 | 1014.5 |
| 20260506121520 | 57 | 360 | 2.0 | 3.0 | 0.00 | 0.00 | 0.00 | 37 | 1014.6 |
| 20260506121019 | 57 | 265 | 0.0 | 2.0 | 0.00 | 0.00 | 0.00 | 36 | 1014.5 |
| 20260506120519 | 58 | 265 | 1.0 | 2.0 | 0.00 | 0.00 | 0.00 | 35 | 1014.7 |
| 20260506120020 | 58 | 264 | 0.0 | 2.0 | 0.00 | 0.00 | 0.00 | 35 | 1014.7 |
| 20260506115520 | 58 | 360 | 0.0 | 3.0 | 0.00 | 0.00 | 0.00 | 35 | 1014.6 |
| 20260506115020 | 58 | 263 | 0.0 | 3.0 | 0.00 | 0.00 | 0.00 | 35 | 1014.6 |
| 20260506114519 | 58 | 309 | 0.0 | 3.0 | 0.00 | 0.00 | 0.00 | 34 | 1014.5 |
| 20260506114019 | 58 | 308 | 0.0 | 3.0 | 0.00 | 0.00 | 0.00 | 35 | 1014.5 |
| 20260506113519 | 58 | 11 | 1.0 | 3.0 | 0.00 | 0.00 | 0.00 | 34 | 1014.4 |
| 20260506112019 | 58 | 9 | 1.0 | 2.0 | 0.00 | 0.00 | 0.00 | 34 | 1014.4 |
| 20260506111519 | 58 | 9 | 2.0 | 3.0 | 0.00 | 0.00 | 0.00 | 35 | 1014.4 |
| 20260506111019 | 58 | 9 | 0.0 | 3.0 | 0.00 | 0.00 | 0.00 | 34 | 1014.3 |
| 20260506110519 | 58 | 12 | 0.0 | 4.0 | 0.00 | 0.00 | 0.00 | 34 | 1014.3 |
| 20260506110020 | 58 | 13 | 1.0 | 4.0 | 0.00 | 0.00 | 0.00 | 35 | 1014.3 |
| 20260506105519 | 58 | 15 | 3.0 | 3.0 | 0.00 | 0.00 | 0.00 | 34 | 1014.2 |
| 20260506104519 | 58 | 17 | 2.0 | 4.0 | 0.00 | 0.00 | 0.00 | 34 | 1014.0 |
| 20260506104019 | 59 | 21 | 0.0 | 3.0 | 0.00 | 0.00 | 0.00 | 34 | 1013.9 |
| 20260506103519 | 59 | 26 | 0.0 | 1.0 | 0.00 | 0.00 | 0.00 | 34 | 1013.9 |
| 20260506102519 | 59 | 24 | 0.0 | 3.0 | 0.00 | 0.00 | 0.00 | 33 | 1013.8 |
| 20260506102021 | 59 | 24 | 0.0 | 2.0 | 0.00 | 0.00 | 0.00 | 33 | 1013.8 |
| 20260506101519 | 59 | 27 | 0.0 | 1.0 | 0.00 | 0.00 | 0.00 | 33 | 1013.6 |
| 20260506101019 | 59 | 25 | 0.0 | 1.0 | 0.00 | 0.00 | 0.00 | 33 | 1013.5 |
| 20260506100519 | 60 | 24 | 0.0 | 4.0 | 0.00 | 0.00 | 0.00 | 32 | 1013.7 |
| 20260506100019 | 60 | 24 | 0.0 | 4.0 | 0.00 | 0.00 | 0.00 | 33 | 1013.6 |
| 20260506095519 | 60 | 22 | 4.0 | 4.0 | 0.00 | 0.00 | 0.00 | 33 | 1013.3 |
| 20260506095019 | 60 | 331 | 2.0 | 4.0 | 0.00 | 0.00 | 0.00 | 33 | 1013.2 |
| 20260506094021 | 60 | 360 | 2.0 | 4.0 | 0.00 | 0.00 | 0.00 | 32 | 1013.1 |
| 20260506093519 | 60 | 329 | 4.0 | 4.0 | 0.00 | 0.00 | 0.00 | 32 | 1013.1 |
| 20260506092519 | 60 | 360 | 2.0 | 3.0 | 0.00 | 0.00 | 0.00 | 32 | 1013.1 |
| 20260506092019 | 60 | 360 | 1.0 | 3.0 | 0.00 | 0.00 | 0.00 | 32 | 1013.0 |
| 20260506091519 | 61 | 331 | 2.0 | 3.0 | 0.00 | 0.00 | 0.00 | 32 | 1013.3 |
| 20260506091019 | 61 | 332 | 0.0 | 1.0 | 0.00 | 0.00 | 0.00 | 32 | 1013.1 |
| 20260506090519 | 61 | 360 | 0.0 | 3.0 | 0.00 | 0.00 | 0.00 | 32 | 1013.3 |
| 20260506090019 | 61 | 360 | 0.0 | 3.0 | 0.00 | 0.00 | 0.00 | 32 | 1013.2 |
| 20260506085519 | 61 | 360 | 0.0 | 4.0 | 0.00 | 0.00 | 0.00 | 32 | 1013.3 |
| 20260506084519 | 61 | 334 | 2.0 | 5.0 | 0.00 | 0.00 | 0.00 | 32 | 1013.3 |
| 20260506084019 | 61 | 311 | 3.0 | 5.0 | 0.00 | 0.00 | 0.00 | 31 | 1013.3 |
| 20260506083019 | 62 | 309 | 0.0 | 2.0 | 0.00 | 0.00 | 0.00 | 32 | 1013.4 |
| 20260506082519 | 62 | 310 | 1.0 | 1.0 | 0.00 | 0.00 | 0.00 | 32 | 1013.4 |
| 20260506082019 | 62 | 311 | 0.0 | 0.0 | 0.00 | 0.00 | 0.00 | 31 | 1013.4 |
| 20260506081520 | 62 | 309 | 0.0 | 0.0 | 0.00 | 0.00 | 0.00 | 31 | 1013.4 |
| 20260506081019 | 62 | 309 | 0.0 | 3.0 | 0.00 | 0.00 | 0.00 | 31 | 1013.3 |
| 20260506080519 | 62 | 309 | 0.0 | 4.0 | 0.00 | 0.00 | 0.00 | 31 | 1013.4 |
| 20260506073519 | 63 | 9 | 3.0 | 5.0 | 0.00 | 0.00 | 0.00 | 30 | 1013.1 |
| 20260506073019 | 63 | 360 | 3.0 | 3.0 | 0.00 | 0.00 | 0.00 | 30 | 1013.1 |
| 20260506072519 | 63 | 360 | 2.0 | 3.0 | 0.00 | 0.00 | 0.00 | 30 | 1013.2 |
| 20260506072019 | 63 | 360 | 1.0 | 4.0 | 0.00 | 0.00 | 0.00 | 30 | 1013.1 |
| 20260506071019 | 64 | 360 | 1.0 | 3.0 | 0.00 | 0.00 | 0.00 | 29 | 1013.2 |
| 20260506070519 | 64 | 360 | 1.0 | 2.0 | 0.00 | 0.00 | 0.00 | 29 | 1013.1 |
| 20260506062019 | 65 | 360 | 2.0 | 4.0 | 0.00 | 0.00 | 0.00 | 28 | 1013.0 |
| 20260506061519 | 65 | 360 | 2.0 | 3.0 | 0.00 | 0.00 | 0.00 | 29 | 1012.9 |
| 20260506060518 | 65 | 360 | 2.0 | 4.0 | 0.00 | 0.00 | 0.00 | 29 | 1012.8 |
| 20260506051019 | 67 | 287 | 1.0 | 5.0 | 0.00 | 0.00 | 0.00 | 28 | 1012.0 |
| 20260506045019 | 68 | 360 | 1.0 | 5.0 | 0.00 | 0.00 | 0.00 | 28 | 1011.7 |
| 20260506043019 | 69 | 360 | 0.0 | 1.0 | 0.00 | 0.00 | 0.00 | 29 | 1011.7 |
| 20260506042518 | 69 | 360 | 0.0 | 1.0 | 0.00 | 0.00 | 0.00 | 28 | 1011.5 |
| 20260506042019 | 70 | 360 | 0.0 | 2.0 | 0.00 | 0.00 | 0.00 | 28 | 1011.6 |
| 20260506041519 | 70 | 187 | 0.0 | 3.0 | 0.00 | 0.00 | 0.00 | 27 | 1011.5 |
| 20260506040519 | 70 | 360 | 0.0 | 4.0 | 0.00 | 0.00 | 0.00 | 27 | 1011.4 |
| 20260506040019 | 70 | 360 | 2.0 | 4.0 | 0.00 | 0.00 | 0.00 | 27 | 1011.2 |
| 20260506035519 | 70 | 360 | 1.0 | 3.0 | 0.00 | 0.00 | 0.00 | 27 | 1011.0 |
| 20260506035019 | 70 | 360 | 0.0 | 3.0 | 0.00 | 0.00 | 0.00 | 26 | 1011.0 |
| 20260506034020 | 71 | 159 | 1.0 | 4.0 | 0.00 | 0.00 | 0.00 | 26 | 1010.8 |
| 20260506033519 | 71 | 360 | 4.0 | 7.0 | 0.00 | 0.00 | 0.00 | 25 | 1010.6 |
| 20260506033018 | 71 | 360 | 2.0 | 7.0 | 0.00 | 0.00 | 0.00 | 25 | 1010.5 |
| 20260506032519 | 71 | 360 | 2.0 | 6.0 | 0.00 | 0.00 | 0.00 | 24 | 1010.5 |
| 20260506032020 | 71 | 360 | 1.0 | 5.0 | 0.00 | 0.00 | 0.00 | 23 | 1010.3 |
| 20260506031018 | 71 | 360 | 0.0 | 5.0 | 0.00 | 0.00 | 0.00 | 23 | 1010.3 |
| 20260506030518 | 72 | 360 | 0.0 | 5.0 | 0.00 | 0.00 | 0.00 | 23 | 1010.3 |
| 20260506025519 | 72 | 360 | 2.0 | 6.0 | 0.00 | 0.00 | 0.00 | 22 | 1010.0 |
| 20260506024519 | 72 | 360 | 3.0 | 7.0 | 0.00 | 0.00 | 0.00 | 21 | 1010.0 |
| 20260506024018 | 72 | 360 | 4.0 | 7.0 | 0.00 | 0.00 | 0.00 | 21 | 1009.8 |
| 20260506023519 | 72 | 360 | 3.0 | 6.0 | 0.00 | 0.00 | 0.00 | 21 | 1009.7 |
| 20260506022519 | 73 | 360 | 1.0 | 5.0 | 0.00 | 0.00 | 0.00 | 20 | 1009.6 |
| 20260506022018 | 73 | 360 | 2.0 | 6.0 | 0.00 | 0.00 | 0.00 | 20 | 1009.5 |
| 20260506021019 | 73 | 360 | 3.0 | 8.0 | 0.00 | 0.00 | 0.00 | 19 | 1009.4 |
| 20260506020018 | 73 | 360 | 2.0 | 8.0 | 0.00 | 0.00 | 0.00 | 19 | 1009.4 |
| 20260506015518 | 73 | 360 | 3.0 | 8.0 | 0.00 | 0.00 | 0.00 | 19 | 1009.1 |
| 20260506015019 | 74 | 360 | 2.0 | 7.0 | 0.00 | 0.00 | 0.00 | 19 | 1009.1 |
| 20260506014518 | 74 | 360 | 4.0 | 7.0 | 0.00 | 0.00 | 0.00 | 19 | 1009.1 |
| 20260506014019 | 74 | 360 | 1.0 | 7.0 | 0.00 | 0.00 | 0.00 | 19 | 1009.2 |
| 20260506013018 | 74 | 360 | 1.0 | 3.0 | 0.00 | 0.00 | 0.00 | 19 | 1009.1 |
| 20260506012519 | 74 | 360 | 0.0 | 5.0 | 0.00 | 0.00 | 0.00 | 19 | 1009.2 |
| 20260506012019 | 74 | 360 | 1.0 | 7.0 | 0.00 | 0.00 | 0.00 | 19 | 1009.1 |
| 20260506011018 | 74 | 360 | 1.0 | 3.0 | 0.00 | 0.00 | 0.00 | 19 | 1009.0 |
| 20260506010518 | 74 | 360 | 1.0 | 4.0 | 0.00 | 0.00 | 0.00 | 19 | 1009.1 |
| 20260506010018 | 74 | 360 | 1.0 | 4.0 | 0.00 | 0.00 | 0.00 | 19 | 1009.2 |
| 20260506005519 | 74 | 360 | 0.0 | 6.0 | 0.00 | 0.00 | 0.00 | 19 | 1009.0 |
| 20260506005019 | 75 | 360 | 3.0 | 8.0 | 0.00 | 0.00 | 0.00 | 19 | 1009.1 |
| 20260506004518 | 75 | 360 | 6.0 | 8.0 | 0.00 | 0.00 | 0.00 | 19 | 1009.1 |
| 20260506004018 | 75 | 360 | 3.0 | 6.0 | 0.00 | 0.00 | 0.00 | 19 | 1009.1 |
| 20260506003019 | 75 | 360 | 1.0 | 10.0 | 0.00 | 0.00 | 0.00 | 19 | 1009.0 |
| 20260506002519 | 74 | 360 | 2.0 | 5.0 | 0.00 | 0.00 | 0.00 | 20 | 1008.8 |
| 20260506001518 | 75 | 360 | 3.0 | 8.0 | 0.00 | 0.00 | 0.00 | 20 | 1009.0 |
| 20260506000518 | 75 | 360 | 7.0 | 7.0 | 0.00 | 0.00 | 0.00 | 19 | 1008.9 |
| 20260505235018 | 75 | 360 | 4.0 | 9.0 | 0.00 | 0.00 | 0.00 | 19 | 1008.9 |
| 20260505234519 | 74 | 360 | 4.0 | 6.0 | 0.00 | 0.00 | 0.00 | 20 | 1008.9 |
| 20260505234019 | 74 | 66 | 0.0 | 7.0 | 0.00 | 0.00 | 0.00 | 20 | 1008.9 |
| 20260505233519 | 75 | 360 | 1.0 | 7.0 | 0.00 | 0.00 | 0.00 | 20 | 1008.8 |
| 20260505233018 | 74 | 360 | 2.0 | 7.0 | 0.00 | 0.00 | 0.00 | 19 | 1008.8 |
| 20260505232519 | 75 | 265 | 1.0 | 7.0 | 0.00 | 0.00 | 0.00 | 19 | 1008.7 |
| 20260505232018 | 74 | 360 | 1.0 | 4.0 | 0.00 | 0.00 | 0.00 | 20 | 1008.8 |
| 20260505231519 | 74 | 360 | 1.0 | 4.0 | 0.00 | 0.00 | 0.00 | 20 | 1008.9 |
| 20260505231018 | 73 | 360 | 1.0 | 4.0 | 0.00 | 0.00 | 0.00 | 19 | 1008.9 |
| 20260505230018 | 75 | 360 | 2.0 | 8.0 | 0.00 | 0.00 | 0.00 | 19 | 1009.1 |
| 20260505225518 | 75 | 360 | 2.0 | 9.0 | 0.00 | 0.00 | 0.00 | 18 | 1009.5 |
| 20260505225018 | 75 | 360 | 6.0 | 9.0 | 0.00 | 0.00 | 0.00 | 19 | 1009.6 |
| 20260505224520 | 75 | 360 | 9.0 | 9.0 | 0.00 | 0.00 | 0.00 | 18 | 1009.7 |
| 20260505224019 | 74 | 360 | 1.0 | 9.0 | 0.00 | 0.00 | 0.00 | 18 | 1009.5 |
| 20260505223519 | 74 | 360 | 8.0 | 9.0 | 0.00 | 0.00 | 0.00 | 19 | 1009.5 |
| 20260505223018 | 74 | 360 | 2.0 | 11.0 | 0.00 | 0.00 | 0.00 | 19 | 1009.5 |
| 20260505221519 | 74 | 191 | 3.0 | 9.0 | 0.00 | 0.00 | 0.00 | 19 | 1009.5 |
| 20260505221018 | 74 | 360 | 3.0 | 11.0 | 0.00 | 0.00 | 0.00 | 19 | 1009.5 |
| 20260505220518 | 75 | 360 | 4.0 | 11.0 | 0.00 | 0.00 | 0.00 | 19 | 1009.8 |
| 20260505220018 | 74 | 360 | 3.0 | 6.0 | 0.00 | 0.00 | 0.00 | 20 | 1009.8 |
| 20260505215018 | 74 | 107 | 3.0 | 9.0 | 0.00 | 0.00 | 0.00 | 20 | 1010.0 |
| 20260505214518 | 74 | 87 | 5.0 | 9.0 | 0.00 | 0.00 | 0.00 | 19 | 1010.0 |
| 20260505214018 | 73 | 360 | 3.0 | 8.0 | 0.00 | 0.00 | 0.00 | 20 | 1009.9 |
| 20260505213518 | 73 | 360 | 3.0 | 8.0 | 0.00 | 0.00 | 0.00 | 20 | 1009.9 |
| 20260505212518 | 74 | 360 | 4.0 | 11.0 | 0.00 | 0.00 | 0.00 | 20 | 1010.4 |
| 20260505212018 | 74 | 360 | 5.0 | 10.0 | 0.00 | 0.00 | 0.00 | 20 | 1010.4 |
| 20260505211518 | 75 | 360 | 5.0 | 10.0 | 0.00 | 0.00 | 0.00 | 20 | 1010.5 |
| 20260505211018 | 73 | 139 | 4.0 | 7.0 | 0.00 | 0.00 | 0.00 | 21 | 1010.3 |
| 20260505210519 | 74 | 360 | 1.0 | 7.0 | 0.00 | 0.00 | 0.00 | 21 | 1010.7 |
| 20260505210018 | 74 | 360 | 4.0 | 7.0 | 0.00 | 0.00 | 0.00 | 20 | 1010.7 |
| 20260505205519 | 73 | 360 | 4.0 | 9.0 | 0.00 | 0.00 | 0.00 | 22 | 1010.7 |
| 20260505205018 | 74 | 128 | 5.0 | 9.0 | 0.00 | 0.00 | 0.00 | 20 | 1010.8 |
| 20260505204519 | 73 | 360 | 4.0 | 12.0 | 0.00 | 0.00 | 0.00 | 22 | 1010.8 |
| 20260505204018 | 74 | 120 | 2.0 | 12.0 | 0.00 | 0.00 | 0.00 | 21 | 1010.8 |
| 20260505203018 | 73 | 122 | 7.0 | 14.0 | 0.00 | 0.00 | 0.00 | 23 | 1010.7 |
| 20260505202518 | 72 | 72 | 9.0 | 9.0 | 0.00 | 0.00 | 0.00 | 23 | 1010.7 |
| 20260505201518 | 73 | 90 | 9.0 | 10.0 | 0.00 | 0.00 | 0.00 | 23 | 1010.7 |
| 20260505201019 | 72 | 69 | 4.0 | 8.0 | 0.00 | 0.00 | 0.00 | 24 | 1010.8 |
| 20260505200018 | 72 | 360 | 3.0 | 9.0 | 0.00 | 0.00 | 0.00 | 24 | 1010.9 |
| 20260505195518 | 72 | 360 | 3.0 | 9.0 | 0.00 | 0.00 | 0.00 | 24 | 1011.0 |
| 20260505195018 | 71 | 360 | 8.0 | 9.0 | 0.00 | 0.00 | 0.00 | 24 | 1010.9 |
| 20260505194518 | 71 | 360 | 3.0 | 9.0 | 0.00 | 0.00 | 0.00 | 25 | 1011.0 |
| 20260505194018 | 72 | 360 | 7.0 | 10.0 | 0.00 | 0.00 | 0.00 | 24 | 1011.1 |
| 20260505193020 | 72 | 360 | 2.0 | 7.0 | 0.00 | 0.00 | 0.00 | 24 | 1011.1 |
| 20260505192518 | 72 | 360 | 3.0 | 8.0 | 0.00 | 0.00 | 0.00 | 24 | 1011.2 |
| 20260505192018 | 71 | 360 | 4.0 | 8.0 | 0.00 | 0.00 | 0.00 | 25 | 1011.1 |
| 20260505191519 | 71 | 266 | 1.0 | 8.0 | 0.00 | 0.00 | 0.00 | 25 | 1011.2 |
| 20260505191018 | 71 | 360 | 3.0 | 10.0 | 0.00 | 0.00 | 0.00 | 26 | 1011.2 |
| 20260505190519 | 71 | 360 | 5.0 | 10.0 | 0.00 | 0.00 | 0.00 | 26 | 1011.2 |
| 20260505190018 | 71 | 76 | 10.0 | 10.0 | 0.00 | 0.00 | 0.00 | 26 | 1011.3 |
| 20260505185519 | 70 | 360 | 4.0 | 7.0 | 0.00 | 0.00 | 0.00 | 28 | 1011.5 |
| 20260505185018 | 70 | 360 | 4.0 | 7.0 | 0.00 | 0.00 | 0.00 | 27 | 1011.5 |
| 20260505184519 | 70 | 56 | 2.0 | 10.0 | 0.00 | 0.00 | 0.00 | 27 | 1011.6 |
| 20260505184018 | 71 | 72 | 2.0 | 10.0 | 0.00 | 0.00 | 0.00 | 27 | 1011.7 |
| 20260505183518 | 71 | 360 | 4.0 | 9.0 | 0.00 | 0.00 | 0.00 | 27 | 1011.6 |
| 20260505183017 | 70 | 91 | 3.0 | 9.0 | 0.00 | 0.00 | 0.00 | 27 | 1011.5 |
| 20260505182018 | 69 | 360 | 3.0 | 7.0 | 0.00 | 0.00 | 0.00 | 30 | 1011.4 |
| 20260505181518 | 69 | 360 | 6.0 | 9.0 | 0.00 | 0.00 | 0.00 | 29 | 1011.5 |
| 20260505180517 | 68 | 360 | 4.0 | 10.0 | 0.00 | 0.00 | 0.00 | 29 | 1011.5 |
| 20260505180018 | 68 | 360 | 3.0 | 6.0 | 0.00 | 0.00 | 0.00 | 30 | 1011.5 |